PST,Max TemperatureF,Mean TemperatureF,Min TemperatureF,Max Dew PointF,MeanDew PointF,Min DewpointF,Max Humidity, Mean Humidity, Min Humidity, Max Sea Level PressureIn, Mean Sea Level PressureIn, Min Sea Level PressureIn, Max VisibilityMiles, Mean VisibilityMiles, Min VisibilityMiles, Max Wind SpeedMPH, Mean Wind SpeedMPH, Max Gust SpeedMPH,PrecipitationIn, CloudCover, Events, WindDirDegrees
2013-11-1,63,58,53,52,48,43,88,74,50,30.28,30.16,29.85,10,10,9,7,2,,0.00,7,Rain,156
2013-11-2,57,52,46,50,43,36,89,72,57,29.89,29.72,29.51,10,9,6,28,11,43,0.38,7,Rain,181
2013-11-3,53,46,39,40,37,33,89,72,47,30.12,30.03,29.91,10,10,10,7,4,,0.02,5,Rain,137
2013-11-4,51,44,36,39,36,32,97,71,48,30.20,30.14,30.06,10,10,8,5,1,,0.01,6,Rain,114
2013-11-5,55,50,44,48,44,39,93,80,64,30.26,30.10,30.02,10,9,2,12,4,18,0.05,7,Rain,153
2013-11-6,54,50,46,47,44,42,86,78,64,30.32,30.22,30.04,10,10,8,8,1,,0.09,7,Rain,117
2013-11-7,53,52,50,47,45,43,87,80,71,30.01,29.84,29.74,10,8,2,21,10,31,0.94,8,Rain,167
2013-11-8,55,50,44,44,42,39,82,70,59,30.17,30.10,29.97,10,10,10,10,7,17,0.00,5,,176
2013-11-9,52,46,41,44,41,37,89,79,61,30.16,30.11,30.08,10,9,5,4,1,,0.09,6,Rain,255
2013-11-10,52,50,48,45,43,42,83,77,69,30.15,30.13,30.10,10,10,10,7,2,,0.00,7,Rain,353
2013-11-11,60,52,43,44,42,39,89,75,55,30.17,30.09,30.01,10,10,10,5,1,,0.00,3,,323
2013-11-12,60,54,48,51,47,43,86,78,67,30.38,30.23,30.04,10,10,8,10,6,17,0.14,6,Rain,160
2013-11-13,57,54,51,48,46,44,88,74,62,30.44,30.39,30.32,10,10,10,13,7,,0.00,7,,182
2013-11-14,52,48,44,46,43,39,87,81,74,30.30,30.17,30.07,10,10,10,7,2,,0.01,6,Rain,167
2013-11-15,51,48,44,45,41,38,87,78,71,30.07,29.75,29.33,10,10,5,20,8,32,0.08,8,Rain,168
2013-11-16,50,44,39,39,36,34,82,68,57,29.77,29.57,29.37,10,10,10,12,6,21,0.00,5,,167
2013-11-17,53,49,45,46,42,37,83,76,68,29.91,29.85,29.79,10,10,4,14,8,23,0.05,7,Rain,177
2013-11-18,55,51,48,50,47,44,93,85,80,29.91,29.77,29.56,10,7,2,15,7,21,0.80,8,Rain,154
2013-11-19,55,49,41,50,38,20,86,70,40,30.08,29.78,29.56,10,9,5,14,8,25,0.11,8,Rain,11
2013-11-20,46,42,36,28,25,20,67,54,35,30.52,30.33,30.10,10,10,10,9,4,,0.00,1,,1
2013-11-21,46,40,33,28,25,22,79,61,42,30.67,30.62,30.53,10,10,10,6,2,,0.00,0,,12
2013-11-22,46,40,33,29,27,26,75,63,46,30.66,30.57,30.47,10,10,10,9,2,,0.00,1,,338
2013-11-23,50,40,30,36,31,26,86,73,52,30.44,30.32,30.21,10,10,10,5,1,,0.08,2,,324
2013-11-24,50,40,30,40,34,27,89,82,68,30.26,30.21,30.18,10,8,5,5,1,,0.00,1,,110
2013-11-25,55,44,33,40,35,30,93,82,51,30.32,30.30,30.27,10,6,0,7,3,,0.00,3,Fog,139
2013-11-26,55,44,33,41,36,32,97,82,55,30.27,30.20,30.11,10,4,0,7,2,,0.00,6,Fog-Rain,143
2013-11-27,55,47,39,41,39,35,86,74,55,30.09,30.02,29.97,10,10,8,6,1,,0.00,4,,307
2013-11-28,45,40,35,43,37,33,93,91,86,30.19,30.11,30.04,9,2,0,7,1,,0.00,3,Fog,145
2013-11-29,48,44,39,45,41,36,93,86,76,30.32,30.27,30.20,10,7,3,8,3,,0.01,8,Fog,145
2013-11-30,53,49,45,47,44,41,90,81,71,30.34,30.28,30.10,10,10,8,13,7,18,0.06,7,Rain,151